Temperature
16 17 17 17 17 17 18 18 18 18 18 18 18 18 18 17 17 17 16 16 16 16 16 16 16 16 16 15 15 15 15 15 15 15 15 15 15 15
16 16 16 17 17 17 17 17 17 17 17 18 18 18 18 17 17 16 16 16 16 16 16 16 16 16 16 16 15 15 15 15 15 15 15 15 15 15
16 16 16 16 16 16 16 16 17 17 17 17 17 17 17 17 17 16 16 16 16 16 16 16 16 16 16 16 16 16 15 15 15 15 15 15 15 15
16 16 16 16 16 16 16 16 16 16 16 16 16 16 16 16 16 16 16 15 15 15 15 16 16 15 15 15 15 15 15 15 15 15 15 15 15 15
15 15 15 15 15 15 15 15 15 15 15 15 15 15 15 15 15 15 15 15 15 15 15 15 15 15 15 15 15 15 15 15 15 15 15 15 15 15
15 15 15 15 14 14 14 14 14 14 14 14 14 14 14 14 14 14 14 14 14 14 14 14 14 15 15 14 14 14 14 14 15 14 14 14 14 14
14 14 14 14 14 14 14 13 13 13 13 13 13 13 13 13 13 13 13 13 13 13 13 14 14 14 14 14 14 14 14 14 14 14 14 14 14 14
14 13 13 13 13 13 13 13 12 12 12 12 12 12 12 12 12 12 12 12 12 12 12 13 13 13 13 13 13 13 13 13 13 13 13 13 13 13
13 13 12 12 12 12 12 12 12 11 11 11 11 11 11 11 11 11 11 11 11 11 11 12 12 12 12 12 12 12 12 12 12 12 12 12 12 12
12 12 11 11 11 11 11 11 10 10 10 10 10 10 10 10 10 9 9 9 10 10 10 10 11 11 11 11 11 11 11 11 11 11 11 11 11 11
11 11 11 10 10 10 10 10 10 9 9 9 9 9 9 9 9 9 8 8 8 9 9 9 9 9 10 10 10 10 10 10 10 10 10 10 10 10
10 10 10 9 9 9 9 9 9 9 9 9 9 9 8 8 8 8 7 7 7 7 8 8 8 8 8 8 9 9 9 9 9 9 9 10 10 10
9 9 8 8 8 8 8 8 7 7 7 7 7 7 7 7 7 7 7 6 6 6 6 6 6 6 6 6 7 7 8 8 8 8 9 9 9 9
8 8 8 8 7 7 7 6 6 6 6 6 6 6 6 6 6 6 6 6 6 6 6 6 5 5 5 5 6 6 6 7 7 7 8 8 8 8
8 7 7 7 7 6 6 6 6 5 5 5 5 5 5 5 5 5 5 5 5 5 5 5 5 5 5 5 5 5 5 6 6 7 7 7 7 7
7 7 7 7 6 6 6 5 5 4 4 4 4 4 3 3 3 3 3 3 3 4 4 4 4 4 4 4 4 4 5 5 5 6 6 6 7 7
6 6 6 6 6 5 5 4 4 4 3 3 3 3 3 2 2 2 2 2 2 2 2 3 3 3 3 3 4 4 4 4 5 5 5 5 6 6
5 5 5 5 4 4 4 3 3 3 2 2 2 2 2 1 1 1 1 1 1 1 1 2 2 2 2 3 4 3 4 4 4 4 5 4 5 5
5 5 4 4 4 3 3 2 2 2 2 1 1 1 1 1 1 1 1 1 1 1 1 1 1 1 1 2 2 3 3 3 3 4 4 4 4 5
4 4 3 3 3 2 2 2 1 1 1 1 1 0 0 0 0 -0 -0 0 -0 0 0 0 1 1 1 1 1 2 3 3 3 3 3 4 4 5
3 3 3 2 2 2 1 1 1 1 0 0 0 -0 -0 -0 -0 -0 -0 -0 -0 -0 -0 -0 0 0 1 1 1 2 2 3 3 3 3 3 4 4
3 2 2 2 2 1 1 1 0 0 -0 -0 -0 -1 -1 -1 -1 -1 -1 -1 -1 -1 -0 -0 0 0 1 1 1 1 2 3 3 3 3 4 4 4
2 2 1 1 1 1 0 -0 -0 -0 -1 -1 -1 -1 -1 -1 -1 -1 -1 -1 -1 -0 -0 -0 0 0 1 1 1 1 2 2 2 3 4 4 4 4
Wind_Speed
3 3 3 3 3 3 3 2 1 2 3 3 2 4 6 8 13 14 12 19 20 19 19 19 19 18 18 18 17 17 17 17 17 17 17 17 17 18
2 2 2 3 3 2 2 2 2 2 3 2 1 1 2 4 12 10 9 13 20 21 21 21 21 21 21 20 20 20 19 19 19 19 18 19 19 19
3 2 2 3 3 4 3 3 3 2 3 4 2 1 1 0 3 5 8 9 13 20 23 23 23 23 23 22 22 22 21 21 21 20 20 20 20 20
2 2 2 2 2 3 4 4 3 3 3 4 4 3 2 2 2 4 6 10 10 14 23 25 24 24 24 24 23 24 23 23 23 22 22 22 21 21
1 0 1 2 2 2 2 4 4 4 3 3 5 4 3 3 3 4 6 5 11 13 13 19 21 22 23 25 25 25 25 24 24 24 24 23 22 22
4 4 4 4 4 4 3 4 5 5 5 4 5 4 4 4 3 3 5 4 6 9 9 10 15 20 23 25 24 24 24 25 25 24 24 24 23 23
5 5 6 7 8 6 4 5 5 4 5 5 5 5 4 5 4 4 5 5 5 5 5 6 6 6 10 17 20 22 24 24 23 23 23 23 23 23
5 4 5 7 7 7 6 5 4 4 4 4 4 5 6 6 5 6 5 5 5 4 5 7 6 7 6 12 15 19 19 20 20 21 21 22 23 23
6 5 6 9 10 8 6 4 3 2 2 3 4 5 5 5 5 6 6 7 7 7 8 9 8 9 8 15 15 15 17 18 19 20 20 21 22 23
7 7 7 8 9 9 7 7 6 5 3 3 3 4 5 4 4 5 7 8 8 8 7 8 8 8 9 9 15 15 15 17 18 18 19 20 22 23
7 8 8 8 9 11 7 7 7 6 7 8 8 9 12 13 9 5 6 6 7 7 5 5 6 7 6 6 12 17 17 16 17 18 20 22 23 22
6 8 11 9 8 9 6 6 6 7 9 11 9 11 10 10 11 7 5 6 6 6 5 6 7 7 6 5 5 9 13 15 18 19 20 21 23 15
4 5 5 6 6 6 6 4 5 7 8 9 8 6 5 4 3 3 3 4 6 7 7 7 8 8 8 8 8 7 7 7 10 12 16 19 21 15
5 5 4 6 8 8 6 6 9 9 7 6 6 6 6 7 7 7 8 8 8 8 10 8 7 8 10 11 10 7 7 7 7 8 8 15 17 19
5 7 8 10 10 7 4 7 7 5 5 6 7 7 7 7 7 6 8 9 10 12 13 11 7 7 8 10 10 9 10 9 8 9 9 9 9 8
8 10 11 8 6 6 5 3 3 4 5 6 6 6 7 7 7 7 8 8 8 8 9 14 12 9 8 10 10 11 10 9 9 9 9 9 8 7
8 7 4 4 4 4 5 5 5 6 7 7 7 7 7 7 8 8 7 9 9 9 9 8 10 12 10 11 12 11 10 10 10 9 10 11 10 9
7 5 5 6 7 7 7 7 6 7 7 7 7 7 7 8 8 8 8 8 9 10 10 10 10 11 11 10 10 10 9 10 10 10 11 12 13 10
4 4 5 6 6 7 7 7 7 7 6 7 7 7 8 8 9 9 9 9 9 10 10 10 10 10 13 13 10 11 12 13 13 12 11 11 13 12
4 6 6 6 6 6 7 7 7 7 7 7 7 7 7 8 9 9 9 10 10 11 11 10 10 10 11 13 13 15 17 14 12 13 13 13 13 14
7 7 7 7 6 6 6 6 7 7 8 7 7 8 8 8 9 9 10 12 11 10 11 11 11 14 12 10 11 12 12 15 17 14 15 15 15 14
7 7 6 6 6 5 6 6 7 7 8 8 8 9 9 9 10 11 11 10 10 10 12 12 12 11 10 12 14 15 16 15 15 20 20 18 13 12
6 6 6 6 6 6 6 7 8 7 8 9 9 10 11 11 10 10 11 10 10 11 12 12 11 11 11 12 13 13 16 16 14 13 13 16 19 21
Wind_Direction
244 227 257 286 286 306 322 329 304 297 282 238 199 188 178 166 172 189 199 203 210 216 220 225 228 231 233 234 236 239 241 244 247 249 251 253 254 256
257 289 263 300 319 307 305 309 300 285 288 301 269 212 150 179 176 200 220 213 215 221 225 228 231 233 235 236 239 241 244 246 248 250 251 253 255 256
253 249 250 284 320 329 323 307 299 302 285 292 297 323 135 192 160 226 243 229 223 227 230 231 232 234 236 239 241 243 245 247 249 251 252 253 254 255
245 263 266 262 264 307 325 328 329 325 311 303 313 327 322 264 234 245 262 262 253 242 231 231 232 235 239 241 243 245 246 248 249 251 252 253 254 255
311 325 345 352 342 335 326 329 328 323 330 308 298 302 297 292 288 273 276 284 287 282 253 238 239 242 245 246 246 246 247 249 251 251 252 253 254 254
47 49 43 40 19 350 349 353 340 331 323 308 296 295 293 301 301 287 288 286 285 288 291 269 251 247 248 249 250 252 253 253 254 255 255 254 254 254
61 61 61 61 51 34 22 10 359 347 335 327 317 318 327 340 332 322 308 310 298 293 303 298 286 269 262 257 257 258 257 256 256 256 256 256 256 256
74 74 79 61 47 42 35 28 19 354 348 335 327 332 335 341 343 331 327 322 308 323 334 311 305 296 283 274 261 255 255 255 255 255 256 257 257 257
63 52 49 52 37 23 11 5 8 347 286 307 314 321 324 347 349 332 324 313 297 299 302 290 285 283 280 283 284 277 264 261 260 259 259 259 259 259
72 68 71 57 36 17 6 7 355 352 325 296 317 319 320 328 309 294 290 289 277 271 262 272 276 275 282 291 296 294 285 277 270 266 263 263 264 263
79 66 72 66 36 19 11 1 353 349 346 344 317 293 284 279 272 286 292 299 300 302 313 309 312 314 307 303 299 300 297 287 279 273 270 268 266 267
91 82 68 62 39 24 10 354 348 345 335 324 311 295 282 275 263 241 268 294 304 305 327 336 324 324 309 298 307 315 312 302 289 280 275 272 271 270
46 78 70 41 17 359 340 323 324 319 310 302 302 310 321 324 332 325 310 307 309 305 315 323 314 310 299 300 304 301 302 304 303 295 286 279 275 266
24 32 20 336 324 312 307 302 312 314 305 316 330 340 348 353 350 341 330 316 301 292 292 294 292 295 297 298 299 299 298 297 295 293 290 288 280 272
3 346 317 299 302 302 274 291 308 320 338 342 342 345 347 342 335 330 325 321 313 308 310 313 303 299 295 296 298 299 300 296 290 291 291 288 285 280
355 323 305 290 283 304 326 325 327 350 352 347 344 342 340 338 337 338 333 330 322 316 317 320 317 313 307 301 298 296 293 291 291 291 294 294 290 283
333 315 334 11 13 12 10 15 11 8 5 357 348 343 341 338 334 333 329 326 321 319 320 321 319 313 303 298 296 293 296 296 298 300 301 298 292 287
333 333 1 16 12 8 3 2 6 8 359 346 341 340 337 334 330 328 324 322 320 319 319 319 319 315 308 296 282 294 299 300 301 299 297 294 292 288
321 347 16 16 10 8 5 1 358 356 349 344 342 339 335 330 327 325 323 321 319 316 313 313 311 309 309 307 305 307 306 302 298 294 290 289 290 288
11 18 17 12 11 9 3 358 350 346 345 340 333 333 333 329 325 322 321 319 318 315 311 310 309 310 309 305 302 298 291 288 293 295 294 291 286 282
19 15 11 5 4 5 1 353 347 342 340 337 337 339 334 327 321 319 316 315 313 310 309 308 304 303 299 295 292 292 295 293 288 288 293 293 293 293
15 9 3 357 1 4 360 355 346 341 342 343 342 336 330 325 319 315 313 311 308 306 305 304 303 304 301 297 297 299 302 303 297 290 282 275 280 285
11 4 354 355 5 4 358 346 343 345 350 346 338 329 322 318 314 311 309 306 305 304 305 305 306 304 301 297 298 300 302 306 307 307 303 296 288 277
Height
1553 1554 1555 1556 1557 1557 1558 1558 1559 1558 1558 1558 1559 1559 1559 1560 1560 1560 1560 1560 1560 1560 1560 1560 1560 1560 1560 1560 1560 1560 1560 1560 1560 1560 1560 1559 1559 1560
1552 1552 1553 1554 1554 1555 1556 1556 1556 1557 1556 1556 1557 1557 1557 1557 1557 1557 1557 1557 1556 1556 1556 1556 1556 1555 1555 1555 1555 1555 1555 1555 1555 1554 1554 1554 1554 1554
1550 1550 1551 1552 1552 1553 1553 1554 1554 1554 1554 1553 1554 1554 1554 1554 1554 1553 1553 1553 1552 1551 1551 1551 1551 1551 1550 1550 1550 1550 1549 1549 1549 1549 1548 1548 1548 1548
1548 1548 1549 1549 1549 1550 1550 1550 1551 1551 1551 1550 1550 1550 1550 1550 1550 1549 1549 1548 1548 1547 1546 1546 1545 1545 1545 1544 1544 1543 1543 1543 1542 1542 1542 1541 1541 1541
1546 1546 1546 1546 1546 1547 1547 1547 1547 1547 1547 1546 1546 1546 1546 1546 1545 1544 1544 1543 1543 1542 1541 1540 1539 1539 1538 1538 1537 1537 1536 1535 1535 1535 1534 1534 1534 1533
1543 1543 1543 1543 1543 1543 1543 1543 1543 1543 1543 1542 1542 1542 1541 1541 1540 1539 1538 1537 1537 1536 1535 1534 1533 1532 1531 1531 1530 1529 1529 1528 1527 1527 1526 1526 1525 1525
1540 1540 1540 1540 1540 1540 1540 1540 1539 1539 1539 1538 1537 1537 1536 1535 1534 1533 1532 1531 1530 1530 1528 1528 1527 1525 1524 1523 1522 1522 1521 1520 1519 1518 1518 1517 1517 1516
1538 1538 1538 1538 1537 1537 1537 1537 1536 1536 1535 1534 1533 1532 1531 1530 1529 1528 1527 1525 1524 1524 1522 1520 1519 1517 1517 1516 1515 1514 1513 1512 1511 1510 1509 1509 1508 1507
1536 1536 1536 1535 1535 1535 1534 1533 1533 1532 1531 1531 1529 1528 1527 1526 1524 1523 1522 1520 1518 1517 1516 1512 1512 1510 1509 1508 1508 1506 1505 1504 1503 1502 1501 1500 1499 1498
1535 1535 1534 1534 1533 1532 1531 1530 1530 1529 1528 1526 1526 1524 1523 1521 1520 1518 1516 1514 1512 1511 1511 1507 1505 1504 1502 1501 1500 1499 1498 1496 1495 1493 1492 1491 1489 1488
1533 1533 1532 1532 1531 1530 1529 1527 1526 1525 1525 1523 1521 1520 1519 1517 1516 1514 1512 1509 1507 1507 1506 1503 1500 1497 1495 1493 1493 1492 1491 1489 1487 1485 1484 1482 1480 1479
1533 1532 1531 1530 1529 1528 1526 1525 1523 1522 1520 1519 1518 1516 1515 1514 1512 1510 1508 1506 1504 1502 1501 1499 1495 1492 1488 1487 1486 1485 1483 1481 1479 1477 1475 1474 1472 1469
1533 1531 1530 1529 1528 1526 1524 1523 1521 1519 1517 1516 1514 1513 1512 1510 1509 1507 1505 1503 1501 1498 1497 1495 1491 1488 1486 1481 1479 1478 1476 1474 1472 1469 1467 1465 1464 1462
1531 1530 1529 1528 1526 1524 1522 1521 1519 1517 1515 1514 1512 1511 1509 1507 1504 1503 1501 1499 1497 1494 1492 1490 1487 1484 1480 1475 1472 1470 1469 1467 1464 1461 1459 1457 1455 1453
1529 1528 1527 1526 1524 1523 1521 1519 1517 1515 1513 1512 1510 1508 1506 1503 1501 1498 1495 1493 1491 1489 1487 1485 1482 1479 1475 1471 1467 1464 1461 1459 1457 1454 1451 1449 1447 1445
1527 1526 1525 1524 1523 1521 1520 1517 1516 1514 1512 1510 1507 1505 1502 1500 1497 1494 1491 1488 1485 1483 1482 1479 1476 1473 1469 1466 1463 1458 1456 1453 1450 1447 1444 1441 1439 1437
1526 1525 1524 1523 1522 1520 1519 1517 1514 1512 1510 1508 1505 1502 1499 1497 1494 1491 1488 1485 1482 1479 1475 1473 1471 1468 1464 1461 1457 1453 1450 1447 1444 1441 1437 1432 1430 1428
1526 1525 1524 1522 1521 1519 1517 1515 1513 1510 1508 1506 1503 1500 1497 1494 1491 1488 1485 1482 1479 1475 1472 1468 1464 1460 1457 1454 1453 1448 1444 1441 1437 1434 1430 1425 1421 1419
1526 1525 1524 1522 1521 1519 1516 1514 1512 1510 1507 1504 1501 1498 1495 1492 1488 1485 1482 1479 1475 1472 1468 1465 1461 1457 1453 1448 1445 1444 1440 1434 1430 1426 1423 1419 1414 1410
1527 1525 1524 1522 1520 1518 1516 1513 1511 1508 1505 1502 1499 1496 1493 1489 1486 1482 1479 1475 1472 1467 1464 1460 1457 1454 1450 1445 1439 1435 1434 1430 1425 1420 1416 1411 1406 1402
1527 1525 1523 1521 1519 1517 1514 1512 1509 1506 1503 1500 1497 1494 1490 1487 1483 1479 1475 1472 1468 1464 1460 1456 1453 1450 1445 1440 1435 1429 1426 1424 1420 1415 1409 1404 1398 1394
1526 1524 1523 1521 1519 1516 1513 1510 1507 1504 1501 1498 1495 1491 1487 1484 1480 1476 1472 1468 1464 1460 1456 1452 1448 1444 1440 1436 1430 1425 1419 1416 1412 1408 1404 1399 1394 1387
1526 1524 1522 1520 1517 1515 1512 1509 1506 1503 1500 1496 1492 1488 1484 1480 1476 1472 1469 1465 1461 1457 1452 1448 1444 1440 1436 1431 1426 1421 1415 1410 1405 1400 1395 1392 1388 1383